Location: Ambrosina
(19.9365°S, 43.9833°W)
Time: 00:50:37
(UTC+00:00)

Cosmos 2333 Rocket - Pass Details

Date: 11 May 2021
Orbit: 839 x 862 km, 70.8° (Epoch: 20 June)

Event Time Altitude Azimuth Distance (km) Brightness Sun altitude
Rises 20:42:09 0° 317° (NW) 3,389 6.6 -3.8°
Reaches altitude 10° 20:44:57 10° 305° (NW) 2,457 6.2 -4.4°
Maximum altitude 20:49:38 27° 248° (WSW) 1,582 4.3 -5.5°
Drops below altitude 10° 20:54:20 10° 192° (SSW) 2,470 4.6 -6.5°
Sets 20:57:11 0° 179° (S) 3,410 5.2 -7.2°
